Regional Weather Roundup
Issued by NWS

Home | Current Version | Previous Version | Graphics & Text | Print | Product List | Glossary On
Versions: 1 2 3 4 5 6 7 8 9 10 11 12 13 14 15 16 17 18 19 20 21 22 23 24 25 26 27 28 29 30 31 32 33 34 35 36 37 38 39 40 41 42 43 44 45 46 47 48 49 50
000
ASUS43 KBIS 191302
RWRND

NORTH DAKOTA REGIONAL WEATHER ROUNDUP
NATIONAL WEATHER SERVICE BISMARCK ND
700 AM CST FRI JAN 19 2018

NOTE: "FAIR" INDICATES FEW OR NO CLOUDS BELOW 12,000 FEET WITH NO
SIGNIFICANT WEATHER AND/OR OBSTRUCTIONS TO VISIBILITY.


NDZ001>003-009>011-017-191400-
NORTHWEST NORTH DAKOTA

CITY           SKY/WX    TMP DP  RH WIND       PRES   REMARKS
WILLISTON      CLOUDY    42  30  62 W18       29.54R
MINOT          CLOUDY    42  30  62 W20G26    29.45F
MINOT AFB      DRIZZLE   40  30  68 W16       29.44S
$$

NDZ018>021-031>035-040>046-191400-
SOUTHWEST NORTH DAKOTA

CITY           SKY/WX    TMP DP  RH WIND       PRES   REMARKS
BISMARCK       PTCLDY    23  21  92 W6        29.53F WCI  16
DICKINSON      PTCLDY    35  28  75 W14       29.56R
GARRISON         N/A     33  27  78 CALM      29.51R
HETTINGER ARPT MOCLDY    26  21  81 NW3       29.59R
$$

NDZ004>008-012>016-024-026-027-054-191400-
NORTHEAST NORTH DAKOTA

CITY           SKY/WX    TMP DP  RH WIND       PRES   REMARKS
GRAND FORKS    MOCLDY    32  28  85 S6        29.45S
GRND FRKS AFB  MOCLDY    35  28  73 W5        29.45S
DEVILS LAKE    FAIR      30  26  85 W9        29.45F
$$

NDZ022-023-025-028>030-036>039-047>053-191400-
SOUTHEAST NORTH DAKOTA

CITY           SKY/WX    TMP DP  RH WIND       PRES   REMARKS
FARGO          FAIR      31  26  82 S10       29.49
JAMESTOWN      CLOUDY    31  26  82 W3        29.47F
$$





USA.gov is the U.S. government's official web portal to all federal, state and local government web resources and services.